カタログに戻る

STARLINK-3533

運用中通信VLEO
NORAD 51715·PAYLOAD·🇺🇸 United States

打ち上げ Feb 21, 2022 から Cape Canaveral Space Force Station

Loading…

次のパス (今後24時間)

TLE

最新Source: CelesTrak SupGP

元期: Sep 14, 2026, 21:26 UTC

1 51715C 22016B   26257.89354167 -.00030268  00000+0 -97303-3 0  2577
2 51715  53.1589 186.0043 0001468  92.5046  36.9920 15.31726710    12

AllMySatでSTARLINK-3533をリアルタイム追跡

Download on the App Store